Regional Weather Roundup
Issued by NWS

Home | Current Version | Previous Version | Text Only | Print | Product List | Glossary On
Versions: 1 2 3 4 5 6 7 8 9 10 11 12 13 14 15 16 17 18 19 20 21 22 23 24 25 26 27 28 29 30 31 32 33 34 35 36 37 38 39 40 41 42 43 44 45 46 47 48 49 50
000
ASUS42 KKEY 052110
RWRKEY

FLORIDA REGIONAL WEATHER ROUNDUP FOR THE FLORIDA KEYS
NATIONAL WEATHER SERVICE KEY WEST FLORIDA
400 PM EST THU MAR 05 2015

...SOUTH FLORIDA AND THE KEYS...

CITY           SKY/WX    TMP DP  RH WIND       PRES   REMARKS
FORT MYERS     SUNNY     82  70  66 SW13      30.07F
SW REGIONAL AP SUNNY     83  68  60 SW16      30.07F
NAPLES         MOSUNNY   80  71  74 S13       30.08S
MIAMI          MOSUNNY   83  66  56 S12G25    30.08F
WEST KENDALL   SUNNY     82  67  60 S14       30.08F
HOMESTEAD      SUNNY     82  69  63 SE10      30.08F
MARATHON       SUNNY     82  72  71 E7        30.08F
BOCA CHICA NAS MOSUNNY   81  71  71 SE12      30.07F
KEY WEST INTL  SUNNY     80  73  79 SE9       30.07F

...INTERNATIONAL WEATHER...

CITY           SKY/WX    TMP DP  RH WIND       PRES   REMARKS
NASSAU BAHAMAS MOSUNNY   82  73  74 S10       30.11S
CANCUN MEXICO  MOSUNNY   82  72  69 SE17      30.00F
COZUMEL MEXICO MOSUNNY   82  72  69 CALM      29.99F

ADJACENT COASTAL WATERS...

STATION/POSITION TIME  SKY/WX   TEMP    WIND        PRES    WAVE
                                AIR SEA DIR/SP/G            HT/PER
                 (UTC)          (F)     (DEG/KT/KT) (MB)    (FT/S)
PULASKI SHOAL LI 2000            76     150/  7/  9 1018.2F
SAND KEY         2050            77     120/  9/ 11 1018.2F
SOMBRERO KEY     2100            80     120/  7/  8 1019.4F
LONG KEY         2000            78 79  100/  4/  8 1019.7F
MOLASSES REEF    2100            77 76  150/  7/  8 1019.1S
FOWEY ROCKS      NOT AVBL
Buoy 42080       NOT AVBL

$$



USA.gov is the U.S. government's official web portal to all federal, state and local government web resources and services.